Regional Weather Roundup
Issued by NWS

Home | Current Version | Previous Version | Graphics & Text | Print | Product List | Glossary On
Versions: 1 2 3 4 5 6 7 8 9 10 11 12 13 14 15 16 17 18 19 20 21 22 23 24 25 26 27 28 29 30 31 32 33 34 35 36 37 38 39 40 41 42 43 44 45 46 47 48 49 50
000
ASUS43 KIND 211900
RWRIN

WEATHER ROUNDUP FOR INDIANA
NATIONAL WEATHER SERVICE INDIANAPOLIS IN
300 PM EDT MON AUG 21 2017

NOTE: "FAIR" INDICATES FEW OR NO CLOUDS BELOW 12,000 FEET WITH NO
SIGNIFICANT WEATHER AND/OR OBSTRUCTIONS TO VISIBILITY.

* - STATION DOES NOT REPORT WEATHER SUCH AS PRECIPITATION OR FOG.

+ - STATION NOT QUALITY CONTROLLED BY THE NATIONAL WEATHER SERVICE.
    USE DATA WITH CAUTION...ESPECIALLY DEWPOINT AND RELATIVE
    HUMIDITY OBSERVATIONS.

INZ001>003-010>013-019-020-212000-
NORTHWEST INDIANA

CITY           SKY/WX    TMP DP  RH WIND       PRES   REMARKS
GARY /AIRPORT/ CLOUDY    82  72  69 CALM      30.04F
MICHIGAN CITY+ CLOUDY    79  70  73 W5        30.07S
MONTICELLO +   MOSUNNY   80  70  71 W5        30.07F
RENSSELAER +   CLOUDY    79  68  69 CALM      30.06F

$$

LMZ046-743>745-212000-
SOUTHERN LAKE MICHIGAN

STATION/POSITION TIME  TEMP    WIND        PRES    WAVE
                       AIR SEA DIR/SP/G            HT
                 (UTC) (F)     (DEG/KT/KT) (MB)    (FT)
BURNS HARBOR     1840   78      60/  2/  3 1017.9F
MICHIGAN CITY    1830   77     220/  4/  5   N/A
5NW MICH CITY    1850   76 75  210/  2/  4   N/A     1

$$

INZ004-005-014>016-021>024-212000-
NORTH CENTRAL INDIANA

CITY           SKY/WX    TMP DP  RH WIND       PRES   REMARKS
ELKHART        MOSUNNY   81  68  65 W12       30.06F
GOSHEN         PTSUNNY   81  68  64 W8        30.07F
PERU/GRISSOM   CLOUDY    82  75  80 W8        30.08F
SOUTH BEND     MOSUNNY   80  72  76 NW8       30.07F

$$

INZ006>009-017-018-025>027-212000-
NORTHEAST INDIANA

CITY           SKY/WX    TMP DP  RH WIND       PRES   REMARKS
FORT WAYNE     PTSUNNY   83  72  69 SW8       30.08F

$$

INZ028-029-035-036-043>045-051>053-212000-
WEST CENTRAL INDIANA

CITY           SKY/WX    TMP DP  RH WIND       PRES   REMARKS
LAFAYETTE      CLOUDY    80  70  71 W3        30.08F
TERRE HAUTE    CLOUDY    83  74  74 W3        30.08F THUNDER

$$

INZ030>032-037>040-046>048-054>057-064-065-212000-
CENTRAL INDIANA

CITY           SKY/WX    TMP DP  RH WIND       PRES   REMARKS
COLUMBUS       PTSUNNY   86  59  39 SW6       30.11F
GREENWOOD *+   MOSUNNY   84  69  61 W3        30.11F
INDIANAPOLIS   PTSUNNY   87  72  60 SW9       30.08F
-EAGLE CREEK   PTSUNNY   85  71  63 SW5       30.08F
KOKOMO +       MOSUNNY   81  75  82 W6        30.10F
MT COMFORT *+  CLOUDY    82  72  69 SW8       30.11F
SHELBYVILLE    MOSUNNY   84  72  67 S7        30.10F

$$

INZ033-034-041-042-049-050-058-059-212000-
EAST CENTRAL INDIANA

CITY           SKY/WX    TMP DP  RH WIND       PRES   REMARKS
MUNCIE         MOSUNNY   84  73  69 W6        30.10F
RICHMOND +     PTSUNNY   79  72  78 SW6       30.14F

$$

INZ060-061-067>069-081>083-085>088-212000-
SOUTHWEST INDIANA

CITY           SKY/WX    TMP DP  RH WIND       PRES   REMARKS
EVANSVILLE     SUNNY     88  71  57 S6        30.09F
HUNTINGBURG +  MOSUNNY   85  71  63 S3        30.11F

$$

INZ062-063-066-070>080-084-089>092-212000-
SOUTH CENTRAL AND SOUTHEAST INDIANA

CITY           SKY/WX    TMP DP  RH WIND       PRES   REMARKS
BLOOMINGTON    MOSUNNY   85  66  53 S7        30.10F
MADISON *+     SUNNY     82  66  57 S3        30.14F
SEYMOUR +      SUNNY     86  68  54 CALM      30.11F

$$





USA.gov is the U.S. government's official web portal to all federal, state and local government web resources and services.